Back to catalog

STARLINK-4298

AliveCommunicationsVLEO
NORAD 53177·PAYLOAD·🇺🇸 United States

Launched Jul 17, 2022 from Cape Canaveral Space Force Station

Loading…

Next Passes (next 24 hours)

TLE

FreshSource: CelesTrak SupGP

Epoch: Sep 14, 2026, 22:12 UTC

1 53177C 22083AX  26257.92548611 -.00035783  00000+0 -10240-2 0  2579
2 53177  53.1600 358.1496 0001135  83.3790 181.6632 15.35410809    10

Track STARLINK-4298 in real time with AllMySat

Download on the App Store